#timestamp,LO_Frequency,Hit,StdDev 
1542751215.3,286046997.2,N
1542751235.1,286046998.9,N
1542751255.9,286046997.9,N
1542751275.7,286046995.2,N
1542751295.5,286046995.8,N
1542751315.4,286046996.4,N
1542751335.2,286046992.9,N
1542751355.0,286046991.0,N
1542751355.9,286046991.0,N
1542751375.8,286046993.2,N
1542751395.6,286046990.1,N
1542751415.5,286046996.1,N
1542751435.3,286046994.8,N
1542751455.1,286046994.5,N
1542751475.9,286046991.7,N
1542751495.7,286046994.1,N
1542751515.5,286046992.8,N
1542751535.4,286046992.4,N
1542751555.2,286046993.0,N
1542751575.1,286046990.3,N
1542751576.0,286046990.3,N
1542751595.8,286046992.6,N
1542751615.6,286046990.2,N
1542751635.5,286046992.5,N
1542751655.3,286046992.0,N
1542751675.1,286046990.6,N
1542751695.9,286046992.0,N
1542751715.7,286046993.7,N
1542751735.6,286046997.9,N
1542751755.4,286046995.1,N
1542751775.2,286046995.6,N
1542751795.1,286046995.0,N
1542751796.0,286046995.0,N
1542751815.8,286046995.8,N
1542751835.6,286046994.7,N
1542751855.5,286046993.2,Y
1542751875.3,286046999.4,P
1542751895.2,286046999.5,N
1542751915.9,286046998.0,N
1542751935.7,286046995.2,N
1542751955.6,286046993.4,N
1542751975.4,286046996.2,N
1542751995.2,286046993.5,N
1542752015.1,286046993.8,N
1542752016.0,286046993.8,N
1542752035.8,286046994.0,N
1542752055.7,286046994.6,N
1542752075.5,286046994.5,N
1542752095.3,286046992.4,Y
1542752115.2,286046999.1,P
1542752135.0,286046999.5,N
1542752135.9,286046999.5,N
1542752155.7,286046997.9,N
1542752175.6,286046994.9,Y
1542752195.4,286046996.4,P
1542752215.3,286046996.0,P
1542752235.1,286046994.7,P
1542752255.8,286046994.6,Y
1542752275.7,286046993.5,P
1542752295.5,286046994.6,P
1542752315.4,286046995.1,P
1542752335.2,286046995.4,Y
1542752355.0,286046998.5,P
1542752355.9,286046998.5,N
1542752375.8,286046996.5,N
1542752395.6,286046997.7,N
1542752415.4,286046996.4,N
1542752435.3,286046993.6,Y
1542752455.1,286046995.2,P
1542752475.9,286046997.4,N
1542752495.7,286046996.4,P
1542752515.5,286046993.7,Y
1542752535.4,286046997.4,P
1542752555.2,286046994.9,P
1542752575.0,286046995.7,P
1542752576.0,286046995.7,Y
1542752595.8,286047001.2,P
1542752615.6,286047002.5,N
1542752635.5,286047005.3,N
1542752655.3,286047007.3,N
1542752675.1,286047008.2,N
1542752695.9,286047009.9,N
1542752715.7,286047013.7,Y
1542752735.6,286047006.7,P
1542752755.4,286047006.3,P
1542752775.2,286047007.2,P
1542752795.1,286047005.3,Y
1542752796.0,286047005.3,P
1542752815.8,286047002.6,P
1542752835.6,286047002.4,N
1542752855.5,286047001.7,N
1542752875.3,286047004.4,N
1542752895.2,286047004.2,N
1542752915.9,286047003.3,N
1542752935.7,286047003.1,N
1542752955.6,286047003.3,N
1542752975.4,286047001.5,N
1542752995.2,286047004.4,Y
1542753015.1,286047000.9,P
1542753016.0,286047000.9,N
1542753035.8,286046997.4,N
1542753055.7,286046995.6,N
1542753075.5,286046996.3,N
1542753095.3,286046992.3,N
1542753115.2,286046993.2,N
1542753135.0,286046991.2,N
1542753135.9,286046991.2,N
1542753155.8,286046989.7,N
1542753175.6,286046988.2,N
1542753195.4,286046987.8,N
1542753215.3,286046985.6,N
1542753235.1,286046985.3,N
1542753255.8,286046986.4,N
1542753275.7,286046986.3,N
1542753295.5,286046986.7,N
1542753315.4,286046984.7,N
1542753335.2,286046984.1,N
1542753355.0,286046982.3,Y
1542753355.9,286046982.3,P
1542753375.8,286046992.4,N
1542753395.6,286046990.1,N
1542753415.4,286046992.3,N
1542753435.3,286046992.1,N
1542753455.1,286046992.5,N
1542753475.9,286046992.4,N
1542753495.7,286046991.7,N
1542753515.5,286046992.1,N
1542753535.4,286046993.6,N
1542753555.2,286046995.6,N
1542753575.0,286046995.1,N
1542753575.9,286046995.1,N
1542753595.8,286046997.4,N
1542753615.6,286046996.5,N
1542753635.5,286047001.1,N
1542753655.3,286047000.1,N
1542753675.1,286047000.7,N
1542753695.9,286046998.5,N
1542753715.7,286046999.8,N
1542753735.5,286046998.6,N
1542753755.4,286046999.0,N
1542753775.2,286046997.1,N
1542753795.0,286046999.2,N
1542753795.9,286046999.2,N
1542753815.8,286046998.9,N
1542753835.6,286046997.0,N
1542753855.5,286047001.1,N
1542753875.3,286046998.9,N
1542753895.1,286046996.6,N
1542753915.9,286046999.0,N
1542753935.7,286046999.1,N
1542753955.5,286047000.9,N
1542753975.4,286047000.0,N
1542753995.2,286047002.0,N
1542754015.1,286046999.8,N
1542754016.0,286046999.8,N
1542754035.8,286047003.5,N
1542754055.6,286047004.2,N
1542754075.5,286047002.3,N
1542754095.3,286047002.5,N
1542754115.1,286047002.2,N
1542754135.9,286046998.2,N
1542754155.7,286047002.3,N
1542754175.5,286047001.5,N
1542754195.4,286047002.3,N
1542754215.2,286047001.4,N
1542754235.1,286046999.7,N
1542754236.0,286046999.7,N
1542754255.8,286046999.9,N
1542754275.6,286047002.1,N
1542754295.5,286047004.4,N
1542754315.3,286047006.0,N
1542754335.1,286047004.8,N
1542754355.9,286047004.9,N
1542754375.7,286047007.0,Y
1542754395.6,286047007.2,P
1542754415.4,286047006.9,N
1542754435.2,286047008.0,N
1542754455.1,286047010.2,Y
1542754456.0,286047010.2,P
1542754475.8,286047003.0,N
1542754495.7,286047004.8,N
1542754515.5,286047005.6,N
1542754535.3,286047003.0,N
1542754555.2,286047006.7,N
1542754575.9,286047010.2,Y
1542754595.7,286047005.8,P
1542754615.6,286047004.6,P
1542754635.4,286047007.1,P
1542754655.3,286047007.0,Y
1542754675.1,286046996.5,P
1542754676.0,286046996.5,N
1542754695.8,286046997.6,N
1542754715.7,286046996.2,N
1542754735.5,286046994.2,N
1542754755.3,286046994.1,N
1542754775.2,286046992.5,N
1542754795.0,286046990.4,N
1542754795.9,286046990.4,N
